Torna al catalogo

STARLINK-31974

AttivoComunicazioniVLEO
NORAD 59885·PAYLOAD·🇺🇸 United States

Lanciato May 28, 2024 da Cape Canaveral Space Force Station

Loading…

Prossimi Passaggi (prossime 24 ore)

TLE

AggiornatoSource: CelesTrak SupGP

Epoca: Sep 15, 2026, 02:03 UTC

1 59885C 24100A   26258.08590278  .00034397  00000+0  12460-2 0  2582
2 59885  42.9996 135.7916 0001332 272.3375  49.3060 15.27557697    13

Traccia STARLINK-31974 in tempo reale con AllMySat

Download on the App Store